Home > Time Zones > World Clock > Weather > Macau > Macau > Past weeks

Flag for Macau Weather past 2 weeks in Macau, Macau

Now
81 °F

Passing clouds.


Feels Like: 83 °F
Forecast: 77 / 87 °F
Wind: 17 mph from North

Location: Taipa

Current Time: Sep 21, 2014 at 12:16:24 AM

Latest Report: Sep 20, 2014 at 9:30 PM


Visibility: N/A

Pressure: 29.68 "Hg

Humidity: 66%

Dew point: 68 °F

Location of MacauLocation

Historic Weather in Macau — Graph

°F

Macau temperature yesterday

Maximum temperature yesterday: 88 °F (at 2:00 PM)
Minimum temperature yesterday: 82 °F (at 6:00 AM)
Average temperature yesterday: 85 °F

Past Weeks' High & Low Weather Summary

 TemperatureHumidityPressure
High91 °F (Sep 6, 3:00 PM)100% (Sep 17, 4:00 AM)29.92 "Hg (Sep 17, 4:00 AM)
Low77 °F (Sep 17, 3:46 AM)59% (Sep 6, 3:00 PM)29.45 "Hg (Sep 16, 3:00 AM)
Average85 °F80%29.71 "Hg
* Reported Sep 5 9:00 PM — Sep 20 9:00 PM, Macau, Weather by CustomWeather, © 2014

Note: Actual official high and low records may vary slightly from our data, if they occured in-between our weather recording intervals... More about our weather records

Advertising

Macau weather history for previous 24 hours

 ConditionsComfort  
Time TempWeatherWind HumidityBarometerVisibility
9:00 PM
Sep 20
82 °FPassing clouds.16 mph66%29.65 "HgN/A
8:30 PM82 °FPassing clouds.15 mph70%29.65 "HgN/A
8:00 PM82 °FPassing clouds.15 mph66%29.65 "HgN/A
7:30 PM82 °FPassing clouds.15 mph70%29.62 "HgN/A
7:00 PM84 °FPassing clouds.16 mph66%29.62 "HgN/A
6:30 PM84 °FPassing clouds.20 mph66%29.59 "HgN/A
6:00 PM84 °FScattered clouds.14 mph66%29.59 "HgN/A
5:30 PM86 °FScattered clouds.15 mph66%29.59 "HgN/A
5:00 PM86 °FScattered clouds.15 mph59%29.59 "HgN/A
4:30 PM86 °FScattered clouds.15 mph59%29.59 "HgN/A
4:00 PM88 °FScattered clouds.14 mph62%29.59 "HgN/A
3:30 PM88 °FScattered clouds.15 mph62%29.59 "HgN/A
3:00 PM86 °FScattered clouds.15 mph66%29.59 "HgN/A
2:30 PM86 °FScattered clouds.15 mph66%29.62 "HgN/A
2:00 PM88 °FPassing clouds.15 mph66%29.62 "HgN/A
1:30 PM86 °FPassing clouds.17 mph66%29.62 "HgN/A
1:00 PM86 °FPassing clouds.15 mph70%29.62 "HgN/A
12:30 PM86 °FPassing clouds.14 mph70%29.65 "HgN/A
12:00 PM86 °FPassing clouds.17 mph66%29.65 "HgN/A
11:30 AM86 °FPassing clouds.18 mph66%29.68 "HgN/A
11:00 AM84 °FPassing clouds.18 mph70%29.68 "Hg5 mi
10:30 AM84 °FPassing clouds.17 mph70%29.68 "Hg5 mi
10:00 AM84 °FScattered clouds.16 mph70%29.71 "Hg4 mi
9:30 AM84 °FPassing clouds.16 mph74%29.71 "Hg4 mi
9:00 AM82 °FPassing clouds.15 mph79%29.68 "Hg5 mi
8:30 AM82 °FScattered clouds.15 mph79%29.68 "Hg4 mi
8:00 AM82 °FScattered clouds.15 mph79%29.68 "Hg4 mi
7:30 AM82 °FPassing clouds.14 mph79%29.65 "Hg4 mi
7:00 AM82 °FPassing clouds.13 mph74%29.65 "Hg4 mi
6:30 AM82 °FPassing clouds.15 mph74%29.65 "Hg4 mi
6:00 AM82 °FPassing clouds.15 mph79%29.65 "HgN/A
5:00 AM84 °FPassing clouds.14 mph74%29.62 "HgN/A
4:30 AM84 °FPassing clouds.14 mph74%29.59 "HgN/A
4:00 AM84 °FPassing clouds.15 mph74%29.59 "HgN/A
3:30 AM84 °FPassing clouds.13 mph74%29.59 "HgN/A
3:00 AM84 °FPassing clouds.14 mph74%29.59 "HgN/A
2:30 AM86 °FPassing clouds.12 mph75%29.62 "Hg6 mi
2:00 AM86 °FPassing clouds.10 mph75%29.62 "Hg6 mi
1:00 AM86 °FPassing clouds.8 mph75%29.65 "Hg6 mi
12:30 AM86 °FPassing clouds.7 mph79%29.65 "Hg6 mi
12:00 AM86 °FPassing clouds.6 mph79%29.65 "Hg6 mi
Weather by CustomWeather, © 2014

See weather overviewHow to use our weather pages